This demonstration page uses our WeatherBlox Daily Observations layout. Learn more.

Left ArrowRight Arrow

39.29038, -76.61219

Hourly Observations for December 1, 2021

Temp ( °F °C ) Dew Point ( °F °C ) Humidity (%) Winds ( mph kmh ) Pressure ( in mb ) Visibility ( mi km ) Precip ( " mm )
12:54 am 00:54 Clear 31 -0.6 25 -3.9 79 79 N N/A 30.04 1017 10 16 N/A
1:54 am 01:54 Clear 29 -1.7 25 -3.9 85 85 W 3 6 30.05 1018 10 16 N/A
2:54 am 02:54 Mostly Clear 30 -1.1 26 -3.3 85 85 N N/A 30.09 1019 10 16 N/A
3:54 am 03:54 Mostly Clear 28 -2.2 25 -3.9 88 88 W 3 6 30.11 1020 10 16 N/A
4:54 am 04:54 Mostly Clear 27 -2.8 24 -4.4 89 89 WSW 3 6 30.13 1020 10 16 N/A
5:54 am 05:54 Mostly Clear 29 -1.7 25 -3.9 85 85 N N/A 30.16 1021 10 16 N/A
6:54 am 06:54 Mostly Clear 27 -2.8 24 -4.4 89 89 N N/A 30.17 1022 10 16 N/A
7:54 am 07:54 Mostly Sunny 32 undefined 26 -3.3 79 79 N N/A 30.20 1023 10 16 N/A
8:54 am 08:54 Mostly Sunny 40 4.4 31 -0.6 70 70 N N/A 30.20 1023 10 16 N/A
9:54 am 09:54 Partly Cloudy 48 8.9 33 0.6 56 56 NW 3 6 30.22 1024 10 16 N/A
10:54 am 10:54 Partly Cloudy 52 11.1 30 -1.1 43 43 VRB 3 6 30.22 1023 10 16 N/A
11:54 am 11:54 Partly Cloudy 55 12.8 29 -1.7 37 37 WNW 6 9 30.18 1022 10 16 N/A
12:54 pm 12:54 Mostly Cloudy 56 13.3 29 -1.7 36 36 N N/A 30.15 1021 10 16 N/A
1:54 pm 13:54 Mostly Cloudy 56 13.3 31 -0.6 39 39 E 7 11 30.13 1020 10 16 N/A
2:54 pm 14:54 Mostly Cloudy 54 12.2 34 1.1 47 47 SSE 9 15 30.12 1020 10 16 N/A
3:54 pm 15:54 Mostly Cloudy 52 11.1 33 0.6 49 49 SE 8 13 30.11 1020 10 16 N/A
4:54 pm 16:54 Mostly Cloudy 50 10 31 -0.6 48 48 SE 5 7 30.10 1019 10 16 N/A
5:54 pm 17:54 Cloudy 50 10 33 0.6 52 52 SSE 3 6 30.12 1020 10 16 N/A
6:54 pm 18:54 Cloudy 49 9.4 34 1.1 56 56 SE 3 6 30.11 1020 10 16 N/A
7:54 pm 19:54 Cloudy 50 10 33 0.6 52 52 S 3 6 30.10 1019 10 16 N/A
8:54 pm 20:54 Cloudy 50 10 34 1.1 54 54 VRB 6 9 30.07 1018 10 16 N/A
9:54 pm 21:54 Cloudy 50 10 37 2.8 61 61 S 3 6 30.05 1018 10 16 N/A
10:54 pm 22:54 Cloudy with Light Rain 50 10 38 3.3 63 63 N N/A 30.03 1017 9 14 0.00 0.00
11:54 pm 23:54 Cloudy with Light Rain 47 8.3 42 5.6 83 83 N N/A 30.01 1016 10 16 0.00 0.00

Powered by AerisWeather